SB KEPS @ AMSAT $ORB10098.N 2Line Orbital Elements 10098.AMSAT
HR AMSAT ORBITAL ELEMENTS FOR AMATEUR SATELLITES IN NASA FORMAT FROM WA5QGD FORT WORTH,TX April 8, 2010 Send Subscribe/unsubscribe to KEPS at http://www.amsat.org/mailman/listinfo/keps BID: ORB10098.N
DECODE 2-LINE ELSETS WITH THE FOLLOWING KEY: 1 AAAAAU 00 0 0 BBBBB.BBBBBBBB .CCCCCCCC 00000-0 00000-0 0 DDDZ 2 AAAAA EEE.EEEE FFF.FFFF GGGGGGG HHH.HHHH III.IIII JJ.JJJJJJJJKKKKKZ KEY: A-CATALOGNUM B-EPOCHTIME C-DECAY D-ELSETNUM E-INCLINATION F-RAAN G-ECCENTRICITY H-ARGPERIGEE I-MNANOM J-MNMOTION K-ORBITNUM Z-CHECKSUM
TO ALL RADIO AMATEURS BT
AO-07 1 07530U 74089B 10097.57415736 -.00000027 00000-0 10000-3 0 07484 2 07530 101.4054 116.1729 0012186 052.3575 307.8599 12.53578152619606 FO-29 1 24278U 96046B 10098.58889677 .00000000 00000-0 38844-4 0 2820 2 24278 098.5193 297.3303 0350239 304.5655 052.2893 13.52948860673693 SO-33 1 25509U 98061B 10098.50542532 .00000335 00000-0 56772-4 0 6864 2 25509 031.4313 182.5558 0353439 040.6370 322.0078 14.28301141598086 RS-22 1 27939U 03042A 10098.65551643 .00000326 00000-0 71746-4 0 713 2 27939 097.9025 327.0545 0012528 281.3529 078.6273 14.63402451348781 VO-52 1 28650U 05017B 10097.76753500 .00000205 00000-0 32332-4 0 4746 2 28650 097.6990 153.9255 0027663 144.6314 215.6759 14.81716485266262 SO-67 1 35870U 09049F 10098.73290958 .00001605 00000-0 72324-4 0 6133 2 35870 097.3382 149.6334 0007659 307.6503 185.8721 15.22448783 30894 HO-68 1 36122U 09072B 10098.62471179 -.00000045 00000-0 00000 0 0 1954 2 36122 100.4756 159.7407 0007736 132.6317 227.5449 13.16280285 15069 UO-11 1 14781U 84021B 10097.15895957 -.00000064 00000-0 -13232-5 0 02151 2 14781 098.0617 148.6573 0010021 104.9979 255.2342 14.79785317401304 AO-16 1 20439U 90005D 10097.75044309 .00000040 00000-0 30577-4 0 8642 2 20439 098.3251 058.4552 0011502 020.3776 339.7865 14.31855458 55309 LO-19 1 20442U 90005G 10097.48002811 .00000174 00000-0 79970-4 0 07779 2 20442 098.2861 064.2854 0012342 016.3791 343.7773 14.32088193055436 AO-27 1 22825U 93061C 10097.79859759 .00000095 00000-0 54034-4 0 4982 2 22825 098.4799 047.5926 0009147 113.6939 246.5210 14.29292875861995 IO-26 1 22826U 93061D 10098.78653602 .00000056 00000-0 38690-4 0 2369 2 22826 098.4730 049.1817 0009780 106.1976 254.0286 14.29547999862245 GO-32 1 25397U 98043D 10098.56879918 .00000070 00000-0 49157-4 0 1552 2 25397 098.3150 109.8510 0002212 098.8862 261.2575 14.23175288610147 NO-44 1 26931U 01043C 10097.82361727 -.00000061 00000-0 84836-5 0 04292 2 26931 067.0533 025.2596 0006149 264.6737 095.3664 14.29589799444694 SO-50 1 27607U 02058C 10097.87397247 .00000270 00000-0 64607-4 0 1449 2 27607 064.5579 210.0810 0035459 110.0216 250.4730 14.71523327392032 CO-55 1 27844U 03031E 10098.58340060 .00000052 00000-0 44167-4 0 8202 2 27844 098.7109 108.5542 0010534 016.6131 343.5393 14.20696630351205 CO-57 1 27848U 03031J 10098.53241069 .00000047 00000-0 42137-4 0 7703 2 27848 098.7154 107.5860 0010322 020.6497 339.5094 14.20490700351153 AO-51 1 28375U 04025K 10098.55758014 .00000048 00000-0 27404-4 0 6461 2 28375 098.0604 096.0274 0084019 309.5038 049.8746 14.40678133303485 GENESAT1 1 29655U 06058C 10098.48600024 .00109210 00000-0 54077-3 0 44 2 29655 040.0171 119.6357 0007193 187.4833 172.5879 15.80823222188917 CP3 1 31129U 07012N 10098.62756236 .00000186 00000-0 53097-4 0 5484 2 31129 097.9475 141.8968 0103695 089.3027 272.0040 14.52234529157767 CO-65 1 32785U 08021C 10098.67251598 .00000457 00000-0 64796-4 0 6491 2 32785 097.9007 164.5412 0015568 147.0610 213.1606 14.81622554105199 KKS-1 1 33493U 09002B 10098.73085697 .00000864 00000-0 11845-3 0 3697 2 33493 098.0761 217.6649 0020277 009.8193 350.3323 14.80931375 65201 SOHLA-1 1 33496U 09002E 10098.84360693 .00000256 00000-0 51486-4 0 726 2 33496 098.0491 208.8422 0007723 067.9032 292.2994 14.69483749 64697 NOAA-10 1 16969U 86073A 10097.63593151 -.00000104 00000-0 -24637-4 0 00191 2 16969 098.6643 127.2470 0013103 061.1904 299.0593 14.27411211225517 NOAA-11 1 19531U 88089A 10097.80844314 .00000057 00000-0 52110-4 0 00346 2 19531 098.7670 188.0311 0011714 353.3990 006.7038 14.14920426111185 NOAA-12 1 21263U 91032A 10097.95654058 .00000022 00000-0 28177-4 0 05201 2 21263 098.7675 111.1195 0012622 015.1903 344.9666 14.25626398982394 MET-3/5 1 21655U 91056A 10098.44078953 .00000051 00000-0 10000-3 0 7817 2 21655 082.5614 357.9154 0013715 158.0478 202.1240 13.17024819896494 MET-2/21 1 22782U 93055A 10097.64111030 -.00000049 00000-0 -57696-4 0 07435 2 22782 082.5465 308.4202 0020883 239.4679 120.4403 13.83642662838322 OKEAN-4 1 23317U 94066A 10098.68127580 .00000624 00000-0 73871-4 0 1990 2 23317 082.5391 058.7280 0023883 109.0696 251.3102 14.82795823836157 NOAA-14 1 23455U 94089A 10097.79514847 -.00000221 00000-0 -93564-4 0 00114 2 23455 098.8779 179.0241 0010336 078.6649 281.5679 14.13781188787558 NOAA-15 1 25338U 98030A 10097.85977361 .00000198 00000-0 10337-3 0 03319 2 25338 098.6156 086.0623 0009639 281.6748 078.3351 14.24816994618736 RESURS 1 25394U 98043A 10097.60104273 .00000301 00000-0 14817-3 0 04754 2 25394 098.3092 119.5110 0002417 077.9149 282.2296 14.24198571610308 FENGYUN1 1 25730U 99025A 10097.96464884 .00001119 00000-0 67878-3 0 00169 2 25730 098.7816 064.7567 0024557 104.2075 256.1828 14.08215178561804 OKEAN-0 1 25860U 99039A 10097.46015718 .00000104 00000-0 23247-4 0 09616 2 25860 097.8264 072.5895 0001004 044.8132 315.3153 14.73628438576489 NOAA-16 1 26536U 00055A 10097.88953581 .00000101 00000-0 79603-4 0 08075 2 26536 099.1744 113.6905 0010731 170.0638 190.0757 14.12552295491908 NOAA-17 1 27453U 02032A 10097.94988536 .00000206 00000-0 10779-3 0 08137 2 27453 098.4384 151.1972 0011367 347.9697 012.1181 14.24146908404706 NOAA-18 1 28654U 05018A 10097.97413749 .00000501 00000-0 30136-3 0 02973 2 28654 098.9445 044.4610 0013533 250.5802 109.3934 14.11345655251532 NOAA-19 1 33591U 09005A 10097.94693901 .00000080 00000-0 68330-4 0 04967 2 33591 098.7833 041.5801 0014816 125.6122 234.6404 14.11041456060005 HUBBLE 1 20580U 90037B 10096.10228843 .00000773 00000-0 46440-4 0 5465 2 20580 028.4699 350.4344 0003568 151.7519 208.3319 15.00940823893917 ISS 1 25544U 98067A 10098.86896992 .00023253 00000-0 16006-3 0 9356 2 25544 051.6458 226.4374 0005551 153.6324 356.1426 15.74509252652559 CO-58 1 28895U 05043F 10098.68829750 .00000405 00000-0 93779-4 0 5531 2 28895 098.0231 345.4309 0018732 140.6093 219.6444 14.59872629236845 FALCON 1 30776U 07006E 10097.43311821 .00001206 00000-0 89519-4 0 08068 2 30776 035.4326 113.8286 0001649 314.8561 045.2022 15.03572631169403 MAST 1 31126U 07012K 10098.62861755 .00000275 00000-0 72189-4 0 8366 2 31126 097.9451 144.2124 0095757 082.2065 278.9999 14.53572701157959 CAPE1 1 31130U 07012P 10097.09693798 .00000280 00000-0 74705-4 0 08565 2 31130 097.9508 140.3112 0104192 094.8648 266.4494 14.52157857157346 COMPASS 1 32787U 08021E 10098.68645918 .00001247 00000-0 16427-3 0 6403 2 32787 097.8986 164.3825 0016272 148.2954 211.9239 14.81822414105206 AAUSAT2 1 32788U 08021F 10097.75087755 .00001159 00000-0 15266-3 0 06345 2 32788 097.8999 163.5730 0015868 152.0781 208.1288 14.81958798105070 DO-64 1 32789U 08021G 10097.76575007 .00001873 00000-0 24189-3 0 06526 2 32789 097.9060 163.9838 0016249 150.2485 209.9656 14.82062823105073 CO-66 1 32791U 08021J 10097.21271582 .00000749 00000-0 10184-3 0 06318 2 32791 097.8996 162.9503 0016135 150.8574 209.3601 14.81613500104942 RS-30 1 32953U 08025A 10098.42540834 .00000010 00000-0 00000 0 0 5856 2 32953 082.4979 073.0549 0017274 255.1365 104.7800 12.43004713 85074 TACSAT-3 1 35001U 09028A 10097.94859470 .00012344 00000-0 29426-3 0 02589 2 35001 040.4562 275.8282 0020879 201.6136 158.3799 15.41085570049798 PHARMSAT 1 35002U 09028B 10097.86292862 .00010942 00000-0 25581-3 0 2442 2 35002 040.4697 274.6113 0024214 205.7662 154.1953 15.41674318 49794 HAWKSAT1 1 35003U 09028C 10097.83416732 .00022159 00000-0 47312-3 0 2588 2 35003 040.4577 271.4312 0021115 217.2077 142.7286 15.44059560 49839 CP6 1 35004U 09028D 10097.86381044 .00026351 00000-0 55058-3 0 02561 2 35004 040.4573 270.7824 0020380 219.4848 140.4491 15.44642324049838 AEROCUB3 1 35005U 09028E 10098.80297784 .00056845 00000-0 10800-2 0 2706 2 35005 040.4724 265.0324 0019566 228.1403 131.7764 15.47157148 49987 DRAGNSAT 1 35690U 09038B 10076.22711312 .05715194 12509-4 31481-3 0 3162 2 35690 051.6170 315.4586 0004999 310.9891 057.3269 16.42150010 36561 POLLUX 1 35693U 09038E 10087.99866888 .23496735 12787-4 17715-3 0 3529 2 35693 051.6099 254.5746 0006270 294.4866 097.5899 16.52338462 38395 CASTOR 1 35694U 09038F 10098.77091105 .00075915 13385-4 22285-3 0 2632 2 35694 051.6386 209.1601 0004118 304.2432 055.8175 15.92841645 39962 METEOR-M 1 35865U 09049A 10098.74780315 .00000176 00000-0 10000-3 0 1891 2 35865 098.7657 153.0185 0001920 189.1912 170.9195 14.21829466 28855 RS-38 1 35869U 09049E 10098.79704852 .00000177 00000-0 10000-3 0 1916 2 35869 098.7644 153.0947 0004032 198.4037 161.6986 14.21978826 28860 /EX
participants (1)
-
Ray Hoad